Regional Weather Roundup
Issued by NWS

Home | Current Version | Previous Version | Text Only | Print | Product List | Glossary Off
Versions: 1 2 3 4 5 6 7 8 9 10 11 12 13 14 15 16 17 18 19 20 21 22 23 24 25 26 27 28 29 30 31 32 33 34 35 36 37 38 39 40 41 42 43 44 45 46 47 48 49 50

000
ASUS45 KSLC 261010
RWRUT

UTAH REGIONAL WEATHER ROUNDUP
NATIONAL WEATHER SERVICE SALT LAKE CITY UT
300 AM MST FRI DEC 26 2014

UTZ001>011-023>025-261100-

NORTHERN UTAH

CITY           SKY/WX    TMP DP  RH WIND       PRES   REMARKS
BRIGHAM CITY   MOCLDY    26  19  74 SW5       29.90R WCI  21
HILL AFB       MOCLDY    25  15  66 VRB2      29.86R
LOGAN          MOCLDY    18  15  88 SW6       29.92R WCI  10
OGDEN          CLOUDY    27  17  66 NE18      29.86R WCI  14
PROVO AIRPORT  CLOUDY    25  19  80 N8        29.84R WCI  16
SALT LAKE CITY MOCLDY    25  22  88 W3        29.86R
VERNAL         CLOUDY    23  12  62 NE12      29.76R WCI  12
WENDOVER       MOCLDY    27  14  59 NW24G33   29.94R WCI  12
HEBER CITY     CLOUDY    21  12  68 NE10      29.79R WCI  10
WEST JORDAN    CLOUDY    25  25 100 NW8       29.86R WCI  16

$$

UTZ012>022-026-027-261100-

SOUTHERN/CENTRAL UTAH

CITY           SKY/WX    TMP DP  RH WIND       PRES   REMARKS
BLANDING       MOCLDY    19  16  90 N7        29.77R WCI   9
BRYCE CANYON   CLOUDY    14  10  84 N8        29.72R WCI   3
CEDAR CITY     CLOUDY    21  17  84 N8        29.83R WCI  11
DELTA          CLOUDY    24  20  87 NW12      29.86R WCI  13
MILFORD        CLOUDY    23  20  88 NE7       29.87R WCI  15
MOAB/CYNLANDS  LGT SNOW  26  25  96 NE3       29.74R FOG
PRICE          CLOUDY    25  11  55 N8        29.72R WCI  16
ST GEORGE      PTSUNNY   30  19  64 E5        29.91R WCI  25
KANAB            N/A     19  19 100 CALM      29.85R

$$

REGIONAL REPORTS     COLORADO/ARIZONA

CITY           SKY/WX    TMP DP  RH WIND       PRES   REMARKS
CRAIG, CO      CLOUDY    19  15  84 W8        29.72R WCI   9
GRAND JUNCTION LGT SNOW  25  24  96 N3        29.73R FOG
RIFLE          CLOUDY    25  22  88 SW5       29.72R WCI  19
MONTROSE       CLOUDY    26  23  88 CALM      29.73R
CORTEZ         CLOUDY    19  16  88 CALM      29.71R
PAGE, AZ       CLOUDY    33  13  43 CALM      29.77R
GRAND CANYON   LGT SNOW  19  16  88 NW6       29.75R FOG     WCI  11
KINGMAN        CLEAR     26  15  63 E6        29.89R WCI  19
FLAGSTAFF      CLOUDY    15  11  83 VRB7      29.72R WCI   5

$$

REGIONAL REPORTS    NEVADA/IDAHO/WYOMING

CITY           SKY/WX    TMP DP  RH WIND       PRES   REMARKS
LAS VEGAS, NV  CLEAR     43  10  26 NW17      29.91R
ELY            CLOUDY    17  13  84 NW8       29.91R WCI   7
ELKO           CLOUDY    24  15  68 NW5       30.02R WCI  18
POCATELLO, ID  CLEAR      6   4  91 SW5       29.97R WCI  -3
BURLEY         CLEAR     22  16  78 W13       29.97R WCI  10
EVANSTON, WY   CLOUDY    15  10  80 E12G21    29.78R WCI   2
ROCK SPRINGS   CLOUDY    13   8  81 NE15      29.79R WCI  -3

$$


USA.gov is the U.S. government's official web portal to all federal, state and local government web resources and services.